SCP
0 0 0 0 0 0 0 0 0 0 0 0 0 0 0 0 0 0 0 0 0 0 0 0 0 0 0 0 0 0 0 0 0 0 0 0 0 0 0 0 0 0 0
0 0 0 0 0 0 0 0 0 0 0 0 0 0 0 0 0 0 0 0 0 0 0 0 0 0 0 0 0 0 0 0 0 0 0 0 0 0 0 0 0 0 0
0 0 0 0 0 0 0 0 0 0 0 0 0 0 0 0 0 0 0 0 0 0 0 0 0 0 0 0 0 -0 0 0 0 0 0 0 0 0 0 0 0 0 0
0 -0 0 0 0 0 0 0 0 0 0 0 0 0 0 0 0 0 0 0 0 0 0 0 0 0 0 0 0 0 0 0 0 0 0 0 0 0 0 0 0 0 0
-0 -0 0 0 0 0 0 0 0 0 0 0 0 0 0 0 0 0 0 0 0 0 0 0 0 -0 0 0 0 0 0 0 0 0 0 0 0 0 0 0 0 0 0
0 0 0 0 0 0 0 0 0 0 0 0 0 0 0 0 0 0 0 0 0 0 -0 -0 0 -0 0 0 0 0 0 0 0 0 0 0 0 0 0 0 0 0 0
0 0 0 0 0 0 0 0 0 0 0 0 0 0 0 0 0 0 0 0 0 -0 -0 -0 -0 0 0 0 0 0 0 0 0 0 0 0 0 0 0 0 0 0 0
0 0 0 0 0 0 0 0 0 0 0 0 0 0 0 0 0 0 0 0 -0 -0 -0 -0 0 0 0 0 0 0 0 0 0 0 -0 0 0 0 0 0 0 0 0
0 0 0 0 0 0 0 0 0 0 0 0 0 0 0 0 0 0 0 -0 -0 -0 -0 -0 0 0 0 0 0 0 0 0 0 0 0 0 0 0 0 0 0 0 0
0 0 0 -0 0 0 0 0 0 0 0 0 0 0 0 0 0 0 0 -0 0 -0 -0 -0 0 0 0 0 0 0 0 0 0 0 0 0 0 0 0 0 0 0 0
-0 -0 -0 0 0 0 0 0 0 0 0 0 0 0 0 0 0 0 0 0 0 0 0 0 0 0 0 0 0 0 0 0 0 0 0 0 0 0 0 0 0 0 0
-0 -0 -0 -0 0 0 0 0 0 0 0 0 0 0 0 0 0 -0 -0 0 0 0 0 0 0 0 0 0 0 0 0 0 0 0 0 -0 0 0 0 0 0 0 0
-0 -0 0 -0 0 -0 0 0 0 0 0 0 0 0 0 0 -0 0 -0 -0 -0 -0 -0 -0 0 0 0 0 0 0 0 0 0 0 0 0 0 0 0 0 0 0 0
-0 -0 0 -0 0 -0 -0 0 0 0 0 0 0 0 0 0 0 0 -0 -0 0 -0 -0 -0 0 0 0 0 0 0 0 0 0 0 0 0 0 0 0 0 0 -0 0
-0 -0 -0 -0 -0 -0 -0 -0 0 0 0 0 0 0 0 -0 -0 0 -0 -0 -0 -0 -0 -0 -0 0 0 0 0 0 0 0 0 0 0 0 0 0 0 0 0 0 0
-0 -0 -0 -0 -0 -0 -0 0 0 0 0 0 0 0 0 -0 -0 -0 -0 0 -0 -0 -0 -0 -0 -0 0 0 0 0 0 0 0 0 0 0 0 0 0 -0 -0 0 0
-0 -0 -0 -0 -0 -0 -0 -0 -0 0 0 0 0 0 0 0 -0 -0 -0 -0 -0 -0 -0 0 -0 0 0 0 0 0 0 0 0 0 0 0 0 0 0 -0 0 0 0
-0 -0 -0 -0 -0 -0 -0 -0 -0 0 0 0 0 0 0 0 -0 -0 -0 -0 -0 -0 -0 0 0 0 -0 -0 -0 0 0 0 0 0 0 0 0 0 0 0 0 0 0
-0 -0 -0 -0 -0 -0 -0 -0 -0 -0 -0 -0 -0 0 0 0 0 0 0 0 0 0 0 0 0 0 0 0 0 0 0 0 0 0 0 0 0 -0 0 0 0 0 0
-0 -0 -0 -0 -0 -0 -0 -0 -0 -0 -0 -0 -0 -0 0 0 0 0 0 0 0 0 0 0 0 0 0 0 0 0 0 0 0 0 0 -0 -0 -0 0 0 0 0 0
-0 -0 -0 -0 -0 -0 -0 -0 -0 -0 -0 -0 -0 -0 -0 0 0 0 0 0 0 0 0 -0 0 0 0 0 0 -0 -0 -0 0 0 0 0 0 0 0 0 -0 -0 -0
-0 -0 -0 -0 -0 -0 -0 -0 -0 -0 -0 -0 -0 -0 -0 0 0 0 0 0 0 0 0 -0 0 0 0 0 0 0 0 -0 -0 -0 -0 -0 -0 0 0 0 -0 0 0
0 -0 -0 -0 -0 -0 -0 -0 -0 -0 -0 -0 -0 -0 -0 -0 -0 -0 -0 0 0 0 0 0 0 0 0 0 0 0 0 -0 -0 -0 -0 -0 -0 -0 -0 -0 0 0 0
0 0 0 -0 -0 -0 -0 -0 -0 -0 -0 -0 -0 -0 -0 -0 0 0 0 0 0 0 0 0 0 0 0 0 -0 -0 -0 -0 -0 -0 -0 -0 -0 -0 0 0 0 0 -0
0 0 0 -0 -0 -0 -0 -0 -0 -0 -0 -0 -0 -0 -0 -0 0 0 0 0 0 0 0 0 0 0 -0 -0 -0 -0 -0 -0 -0 0 -0 -0 0 0 0 -0 -0 -0 0
0 0 0 0 0 -0 -0 -0 -0 -0 -0 -0 -0 -0 -0 0 0 0 -0 0 -0 -0 0 -0 0 0 -0 0 -0 0 0 -0 -0 0 0 0 -0 -0 -0 0 0 0 0
Wind_Speed_500mb
62 54 49 48 67 52 61 64 53 39 32 25 19 14 15 21 26 26 28 30 25 24 25 20 23 25 22 20 22 26 29 25 24 25 22 25 23 22 28 26 24 28 29
49 39 35 46 57 61 73 62 42 33 27 22 15 13 17 21 26 27 23 17 17 23 22 18 21 22 20 21 20 29 35 29 26 24 22 15 14 18 21 19 23 24 27
40 36 37 37 52 69 68 50 36 30 25 17 12 11 15 20 19 15 9 11 15 18 14 15 21 17 17 16 16 31 31 32 30 21 14 11 8 19 10 13 20 18 19
34 29 30 42 59 67 53 39 32 27 20 14 8 9 13 19 14 11 9 12 13 9 5 16 17 14 14 14 20 27 27 29 29 28 21 14 14 14 10 11 14 19 19
27 29 36 47 65 59 45 35 31 22 17 12 8 9 12 14 13 13 15 13 13 5 9 11 12 13 13 16 21 24 26 24 25 29 32 18 6 22 19 17 21 16 16
29 35 40 60 61 50 40 34 27 17 14 12 4 9 11 11 13 14 17 13 9 7 12 13 15 13 12 16 19 23 23 19 19 28 32 27 15 26 36 35 29 29 34
42 46 64 70 62 49 40 33 22 16 13 11 1 7 10 11 16 18 20 7 4 10 17 16 14 12 13 16 17 23 24 23 23 25 20 26 21 16 29 39 45 40 41
42 54 72 70 57 45 38 30 20 17 14 11 0 4 8 14 17 17 14 4 7 15 22 19 16 13 17 17 17 17 19 22 21 24 25 23 20 18 21 36 50 41 34
50 60 70 63 52 43 38 26 23 20 15 10 4 2 9 14 15 14 10 9 10 19 24 21 18 16 16 15 12 12 23 18 24 22 17 15 16 26 29 16 18 28 27
51 63 69 59 47 37 35 26 22 18 12 10 7 3 9 12 15 12 9 7 12 21 23 22 20 12 16 14 10 14 19 9 22 21 18 17 20 33 30 14 27 25 41
57 67 66 55 42 39 34 29 25 20 15 11 6 2 7 11 11 7 9 5 12 18 20 23 21 13 12 12 10 15 14 15 18 17 15 15 26 31 31 11 28 37 41
58 67 65 55 47 43 39 33 26 21 17 11 7 3 4 7 9 7 11 12 12 17 20 21 18 12 13 13 15 17 17 16 18 17 17 17 22 34 27 19 27 27 28
58 64 63 57 50 45 42 36 30 24 20 11 9 7 3 5 9 13 14 12 16 20 21 21 19 19 17 16 15 15 16 16 18 18 21 24 20 24 23 27 17 31 29
59 64 65 58 51 47 45 38 32 28 22 14 10 8 4 5 8 19 18 17 23 23 24 26 27 25 21 19 19 19 23 24 22 21 22 24 23 23 29 24 27 37 38
59 68 68 60 55 52 49 40 32 31 27 17 13 10 11 9 15 21 19 17 20 24 25 28 29 25 23 24 25 31 31 25 23 25 24 27 28 27 33 32 35 36 42
64 69 68 62 61 55 52 45 36 35 32 21 16 16 17 18 18 24 22 21 19 23 25 24 22 24 24 22 22 15 15 17 20 27 29 32 33 36 33 29 31 48 48
69 74 72 66 60 55 55 49 39 38 36 27 21 24 23 21 22 24 20 18 21 20 17 16 14 19 23 22 18 11 7 9 21 29 32 33 37 45 43 46 40 46 57
70 72 71 67 58 52 55 48 43 41 40 35 26 28 26 28 26 23 19 16 17 20 19 11 11 18 25 23 17 13 15 24 29 35 38 42 56 49 48 45 41 46 42
73 70 67 65 58 55 55 55 50 44 43 42 34 31 31 29 28 23 18 16 16 24 22 28 30 27 34 26 24 28 31 31 35 37 43 38 52 53 43 38 34 37 40
66 66 64 65 60 60 58 62 57 50 47 47 39 32 37 31 30 23 19 19 20 24 24 24 21 28 32 33 34 34 38 41 48 52 56 54 55 47 35 31 37 40 38
69 63 66 65 63 64 63 66 62 59 44 44 42 36 37 36 31 29 25 22 23 25 26 24 23 22 25 31 30 29 33 44 54 51 53 51 41 30 31 39 36 32 32
69 65 70 71 65 66 67 67 67 52 49 45 48 40 37 41 36 32 30 27 25 25 26 25 25 24 24 27 30 33 31 33 40 41 44 37 30 31 34 36 35 32 26
77 72 72 74 70 67 70 68 62 57 55 50 51 45 38 44 40 37 36 33 28 27 27 26 25 25 25 27 29 29 27 27 28 32 31 28 28 32 36 36 33 28 22
77 79 76 74 74 74 71 66 61 58 57 56 55 49 45 44 47 40 39 36 34 31 28 31 29 28 28 29 29 28 27 26 27 31 32 32 32 32 34 38 37 30 23
77 81 86 80 75 73 73 71 67 63 62 58 60 55 52 45 49 46 45 41 34 29 31 30 29 33 34 32 28 27 28 28 28 29 34 36 37 37 37 37 36 34 31
76 78 84 82 76 67 71 73 71 67 63 64 66 63 61 55 49 51 47 45 40 33 27 24 29 26 22 27 28 26 25 25 28 34 37 39 41 41 41 42 41 39 37
Wind_Direction_500mb
293 289 275 257 237 220 213 198 196 205 215 215 224 250 276 299 304 298 292 285 269 285 291 269 233 223 232 241 239 223 204 200 192 193 202 206 216 220 211 213 212 216 218
288 277 255 237 224 216 193 191 191 206 207 212 224 257 293 311 313 306 296 274 272 290 282 258 223 219 232 238 233 203 193 188 182 185 179 180 204 213 206 218 221 209 216
277 250 231 217 203 193 181 179 190 198 200 210 223 274 309 326 325 323 311 299 303 296 271 228 207 219 230 227 210 187 188 189 179 175 172 156 194 175 179 221 204 207 212
275 240 216 197 192 174 174 179 189 191 198 203 225 297 317 334 335 342 331 317 320 314 240 187 202 218 210 200 186 183 185 188 187 187 184 190 199 162 146 183 188 200 204
256 211 192 182 169 170 172 178 182 184 195 201 226 321 337 341 338 339 333 311 318 264 190 191 190 181 179 184 178 180 185 193 206 207 171 138 158 235 184 156 161 196 199
184 181 172 165 165 168 172 177 178 183 193 192 220 337 343 347 340 341 334 305 317 214 185 174 161 165 165 171 165 170 180 188 194 190 196 201 190 190 179 159 174 169 179
172 166 164 166 169 170 174 172 175 180 182 179 243 340 349 346 337 332 336 316 240 185 169 157 146 148 154 164 173 185 184 187 190 196 192 198 222 208 197 175 165 157 156
178 167 168 168 170 174 172 168 174 169 165 162 296 346 9 353 343 338 350 357 161 168 167 154 144 140 138 137 142 163 174 186 194 192 206 239 235 205 208 181 171 146 136
177 172 169 170 175 174 171 169 167 162 156 159 163 45 18 359 9 17 27 73 131 161 166 157 153 151 144 141 148 163 180 182 194 203 215 228 202 182 172 189 187 174 141
174 174 171 174 176 174 169 167 169 156 161 170 170 80 17 7 29 61 44 95 119 153 161 165 163 162 162 157 161 166 178 174 182 192 213 208 202 198 194 157 162 175 169
174 174 174 175 175 172 175 176 173 174 186 187 181 120 11 17 36 50 27 123 139 152 161 167 163 147 155 159 158 160 161 166 176 180 191 196 196 190 187 191 164 175 160
176 175 174 175 176 176 181 186 180 187 193 198 197 176 27 31 32 82 73 107 133 144 150 166 181 166 153 151 151 153 147 147 161 164 164 153 151 168 179 159 163 163 167
177 177 177 181 180 180 187 191 189 189 191 186 176 172 75 48 37 116 106 106 124 140 140 144 149 142 137 135 136 140 142 139 144 158 164 160 163 176 179 177 183 176 173
178 179 182 186 186 187 192 193 190 188 189 180 171 163 129 75 86 124 104 109 121 123 126 129 131 130 122 112 118 124 122 121 122 128 134 152 150 154 159 168 169 151 151
184 186 185 189 193 193 197 194 190 187 191 182 178 163 143 111 120 128 114 119 122 125 125 128 128 128 128 123 120 120 115 108 118 125 135 140 138 154 156 144 160 159 156
191 192 190 192 194 196 199 196 192 189 195 187 177 156 144 124 119 132 115 116 121 126 129 133 135 138 135 135 132 122 119 118 129 130 138 137 152 132 141 140 145 155 141
196 196 194 195 192 196 199 197 194 190 198 191 181 162 150 132 126 133 123 116 128 133 133 135 147 160 157 153 161 160 146 135 136 140 141 146 158 142 145 133 128 128 136
201 200 197 196 193 194 199 194 196 193 200 195 186 173 161 144 136 128 122 119 130 141 143 139 140 152 166 157 165 178 140 127 136 148 151 152 142 144 137 137 132 130 143
205 200 197 193 190 192 195 194 197 194 199 199 192 180 174 163 151 140 120 119 114 136 135 108 99 123 128 129 131 134 131 127 141 152 153 154 151 143 141 135 139 142 140
210 199 197 195 193 194 194 196 198 199 198 200 195 186 181 177 165 157 141 131 121 134 143 134 114 98 110 124 127 128 130 124 130 132 143 149 144 142 137 139 143 141 142
209 200 199 193 194 197 196 200 201 203 194 196 196 192 188 183 174 166 160 149 140 132 142 142 132 124 114 114 120 133 143 138 139 136 140 147 143 140 136 137 144 145 139
206 204 199 197 196 199 200 203 205 199 198 198 197 195 191 188 185 181 172 164 161 151 144 141 136 136 138 133 129 128 134 143 151 149 150 153 156 156 150 146 149 151 146
209 207 201 201 199 202 204 205 207 201 200 200 200 196 192 194 194 191 189 182 176 176 172 167 157 148 141 139 139 142 146 153 158 161 165 171 168 169 167 167 168 171 179
212 207 203 203 202 203 205 210 206 199 199 201 201 198 196 195 199 200 202 202 196 192 191 188 185 177 169 166 164 160 158 160 166 176 174 174 176 178 182 186 185 188 197
212 211 206 204 203 204 203 208 208 203 201 201 202 200 200 198 199 203 206 207 210 213 206 202 201 198 194 187 181 182 181 181 184 188 194 194 193 192 191 193 198 202 205
209 208 210 209 208 205 205 206 208 204 203 202 203 202 201 201 201 203 206 212 215 215 215 222 223 213 210 209 209 205 206 210 211 210 209 208 208 208 208 207 208 209 209
Wind_Speed_850mb
62 54 49 48 67 52 61 64 53 39 32 25 19 14 15 21 26 26 28 30 25 24 25 20 23 25 22 20 22 26 29 25 24 25 22 25 23 22 28 26 24 28 29
49 39 35 46 57 61 73 62 42 33 27 22 15 13 17 21 26 27 23 17 17 23 22 18 21 22 20 21 20 29 35 29 26 24 22 15 14 18 21 19 23 24 27
40 36 37 37 52 69 68 50 36 30 25 17 12 11 15 20 19 15 9 11 15 18 14 15 21 17 17 16 16 31 31 32 30 21 14 11 8 19 10 13 20 18 19
34 29 30 42 59 67 53 39 32 27 20 14 8 9 13 19 14 11 9 12 13 9 5 16 17 14 14 14 20 27 27 29 29 28 21 14 14 14 10 11 14 19 19
27 29 36 47 65 59 45 35 31 22 17 12 8 9 12 14 13 13 15 13 13 5 9 11 12 13 13 16 21 24 26 24 25 29 32 18 6 22 19 17 21 16 16
29 35 40 60 61 50 40 34 27 17 14 12 4 9 11 11 13 14 17 13 9 7 12 13 15 13 12 16 19 23 23 19 19 28 32 27 15 26 36 35 29 29 34
42 46 64 70 62 49 40 33 22 16 13 11 1 7 10 11 16 18 20 7 4 10 17 16 14 12 13 16 17 23 24 23 23 25 20 26 21 16 29 39 45 40 41
42 54 72 70 57 45 38 30 20 17 14 11 0 4 8 14 17 17 14 4 7 15 22 19 16 13 17 17 17 17 19 22 21 24 25 23 20 18 21 36 50 41 34
50 60 70 63 52 43 38 26 23 20 15 10 4 2 9 14 15 14 10 9 10 19 24 21 18 16 16 15 12 12 23 18 24 22 17 15 16 26 29 16 18 28 27
51 63 69 59 47 37 35 26 22 18 12 10 7 3 9 12 15 12 9 7 12 21 23 22 20 12 16 14 10 14 19 9 22 21 18 17 20 33 30 14 27 25 41
57 67 66 55 42 39 34 29 25 20 15 11 6 2 7 11 11 7 9 5 12 18 20 23 21 13 12 12 10 15 14 15 18 17 15 15 26 31 31 11 28 37 41
58 67 65 55 47 43 39 33 26 21 17 11 7 3 4 7 9 7 11 12 12 17 20 21 18 12 13 13 15 17 17 16 18 17 17 17 22 34 27 19 27 27 28
58 64 63 57 50 45 42 36 30 24 20 11 9 7 3 5 9 13 14 12 16 20 21 21 19 19 17 16 15 15 16 16 18 18 21 24 20 24 23 27 17 31 29
59 64 65 58 51 47 45 38 32 28 22 14 10 8 4 5 8 19 18 17 23 23 24 26 27 25 21 19 19 19 23 24 22 21 22 24 23 23 29 24 27 37 38
59 68 68 60 55 52 49 40 32 31 27 17 13 10 11 9 15 21 19 17 20 24 25 28 29 25 23 24 25 31 31 25 23 25 24 27 28 27 33 32 35 36 42
64 69 68 62 61 55 52 45 36 35 32 21 16 16 17 18 18 24 22 21 19 23 25 24 22 24 24 22 22 15 15 17 20 27 29 32 33 36 33 29 31 48 48
69 74 72 66 60 55 55 49 39 38 36 27 21 24 23 21 22 24 20 18 21 20 17 16 14 19 23 22 18 11 7 9 21 29 32 33 37 45 43 46 40 46 57
70 72 71 67 58 52 55 48 43 41 40 35 26 28 26 28 26 23 19 16 17 20 19 11 11 18 25 23 17 13 15 24 29 35 38 42 56 49 48 45 41 46 42
73 70 67 65 58 55 55 55 50 44 43 42 34 31 31 29 28 23 18 16 16 24 22 28 30 27 34 26 24 28 31 31 35 37 43 38 52 53 43 38 34 37 40
66 66 64 65 60 60 58 62 57 50 47 47 39 32 37 31 30 23 19 19 20 24 24 24 21 28 32 33 34 34 38 41 48 52 56 54 55 47 35 31 37 40 38
69 63 66 65 63 64 63 66 62 59 44 44 42 36 37 36 31 29 25 22 23 25 26 24 23 22 25 31 30 29 33 44 54 51 53 51 41 30 31 39 36 32 32
69 65 70 71 65 66 67 67 67 52 49 45 48 40 37 41 36 32 30 27 25 25 26 25 25 24 24 27 30 33 31 33 40 41 44 37 30 31 34 36 35 32 26
77 72 72 74 70 67 70 68 62 57 55 50 51 45 38 44 40 37 36 33 28 27 27 26 25 25 25 27 29 29 27 27 28 32 31 28 28 32 36 36 33 28 22
77 79 76 74 74 74 71 66 61 58 57 56 55 49 45 44 47 40 39 36 34 31 28 31 29 28 28 29 29 28 27 26 27 31 32 32 32 32 34 38 37 30 23
77 81 86 80 75 73 73 71 67 63 62 58 60 55 52 45 49 46 45 41 34 29 31 30 29 33 34 32 28 27 28 28 28 29 34 36 37 37 37 37 36 34 31
76 78 84 82 76 67 71 73 71 67 63 64 66 63 61 55 49 51 47 45 40 33 27 24 29 26 22 27 28 26 25 25 28 34 37 39 41 41 41 42 41 39 37
Wind_Direction_850mb
293 289 275 257 237 220 213 198 196 205 215 215 224 250 276 299 304 298 292 285 269 285 291 269 233 223 232 241 239 223 204 200 192 193 202 206 216 220 211 213 212 216 218
288 277 255 237 224 216 193 191 191 206 207 212 224 257 293 311 313 306 296 274 272 290 282 258 223 219 232 238 233 203 193 188 182 185 179 180 204 213 206 218 221 209 216
277 250 231 217 203 193 181 179 190 198 200 210 223 274 309 326 325 323 311 299 303 296 271 228 207 219 230 227 210 187 188 189 179 175 172 156 194 175 179 221 204 207 212
275 240 216 197 192 174 174 179 189 191 198 203 225 297 317 334 335 342 331 317 320 314 240 187 202 218 210 200 186 183 185 188 187 187 184 190 199 162 146 183 188 200 204
256 211 192 182 169 170 172 178 182 184 195 201 226 321 337 341 338 339 333 311 318 264 190 191 190 181 179 184 178 180 185 193 206 207 171 138 158 235 184 156 161 196 199
184 181 172 165 165 168 172 177 178 183 193 192 220 337 343 347 340 341 334 305 317 214 185 174 161 165 165 171 165 170 180 188 194 190 196 201 190 190 179 159 174 169 179
172 166 164 166 169 170 174 172 175 180 182 179 243 340 349 346 337 332 336 316 240 185 169 157 146 148 154 164 173 185 184 187 190 196 192 198 222 208 197 175 165 157 156
178 167 168 168 170 174 172 168 174 169 165 162 296 346 9 353 343 338 350 357 161 168 167 154 144 140 138 137 142 163 174 186 194 192 206 239 235 205 208 181 171 146 136
177 172 169 170 175 174 171 169 167 162 156 159 163 45 18 359 9 17 27 73 131 161 166 157 153 151 144 141 148 163 180 182 194 203 215 228 202 182 172 189 187 174 141
174 174 171 174 176 174 169 167 169 156 161 170 170 80 17 7 29 61 44 95 119 153 161 165 163 162 162 157 161 166 178 174 182 192 213 208 202 198 194 157 162 175 169
174 174 174 175 175 172 175 176 173 174 186 187 181 120 11 17 36 50 27 123 139 152 161 167 163 147 155 159 158 160 161 166 176 180 191 196 196 190 187 191 164 175 160
176 175 174 175 176 176 181 186 180 187 193 198 197 176 27 31 32 82 73 107 133 144 150 166 181 166 153 151 151 153 147 147 161 164 164 153 151 168 179 159 163 163 167
177 177 177 181 180 180 187 191 189 189 191 186 176 172 75 48 37 116 106 106 124 140 140 144 149 142 137 135 136 140 142 139 144 158 164 160 163 176 179 177 183 176 173
178 179 182 186 186 187 192 193 190 188 189 180 171 163 129 75 86 124 104 109 121 123 126 129 131 130 122 112 118 124 122 121 122 128 134 152 150 154 159 168 169 151 151
184 186 185 189 193 193 197 194 190 187 191 182 178 163 143 111 120 128 114 119 122 125 125 128 128 128 128 123 120 120 115 108 118 125 135 140 138 154 156 144 160 159 156
191 192 190 192 194 196 199 196 192 189 195 187 177 156 144 124 119 132 115 116 121 126 129 133 135 138 135 135 132 122 119 118 129 130 138 137 152 132 141 140 145 155 141
196 196 194 195 192 196 199 197 194 190 198 191 181 162 150 132 126 133 123 116 128 133 133 135 147 160 157 153 161 160 146 135 136 140 141 146 158 142 145 133 128 128 136
201 200 197 196 193 194 199 194 196 193 200 195 186 173 161 144 136 128 122 119 130 141 143 139 140 152 166 157 165 178 140 127 136 148 151 152 142 144 137 137 132 130 143
205 200 197 193 190 192 195 194 197 194 199 199 192 180 174 163 151 140 120 119 114 136 135 108 99 123 128 129 131 134 131 127 141 152 153 154 151 143 141 135 139 142 140
210 199 197 195 193 194 194 196 198 199 198 200 195 186 181 177 165 157 141 131 121 134 143 134 114 98 110 124 127 128 130 124 130 132 143 149 144 142 137 139 143 141 142
209 200 199 193 194 197 196 200 201 203 194 196 196 192 188 183 174 166 160 149 140 132 142 142 132 124 114 114 120 133 143 138 139 136 140 147 143 140 136 137 144 145 139
206 204 199 197 196 199 200 203 205 199 198 198 197 195 191 188 185 181 172 164 161 151 144 141 136 136 138 133 129 128 134 143 151 149 150 153 156 156 150 146 149 151 146
209 207 201 201 199 202 204 205 207 201 200 200 200 196 192 194 194 191 189 182 176 176 172 167 157 148 141 139 139 142 146 153 158 161 165 171 168 169 167 167 168 171 179
212 207 203 203 202 203 205 210 206 199 199 201 201 198 196 195 199 200 202 202 196 192 191 188 185 177 169 166 164 160 158 160 166 176 174 174 176 178 182 186 185 188 197
212 211 206 204 203 204 203 208 208 203 201 201 202 200 200 198 199 203 206 207 210 213 206 202 201 198 194 187 181 182 181 181 184 188 194 194 193 192 191 193 198 202 205
209 208 210 209 208 205 205 206 208 204 203 202 203 202 201 201 201 203 206 212 215 215 215 222 223 213 210 209 209 205 206 210 211 210 209 208 208 208 208 207 208 209 209